This is the latest recevied weather packets stored in our database for station/object EA1L-13. If no packets are shown the sender has not sent any weather packets the latest 10 day(s).
| Time | Temp. | Humidity | Pressure | Rain* | Wind** | Luminosity | Snow |
|---|---|---|---|---|---|---|---|
| 1777917604 | 10.56° C | 100% | 1013 hPa | 1.27 mm | - | - | - |
| 1777916705 | 10° C | 100% | 1013 hPa | 2.03 mm | - | - | - |
| 1777915805 | 10° C | 100% | 1013.1 hPa | 2.79 mm | - | - | - |
| 1777914905 | 10° C | 100% | 1013 hPa | 4.06 mm | - | - | - |
| 1777914004 | 10° C | 97% | 1013 hPa | 4.57 mm | - | - | - |
| 1777913104 | 10° C | 94% | 1012.7 hPa | 4.06 mm | - | - | - |
| 1777912205 | 10° C | 90% | 1012.7 hPa | 3.05 mm | - | - | - |
| 1777911304 | 10.56° C | 84% | 1012.6 hPa | 1.27 mm | - | - | - |
| 1777910404 | 11.11° C | 78% | 1012.2 hPa | 0.51 mm | - | - | - |
| 1777909504 | 11.67° C | 74% | 1012 hPa | 0 mm | - | - | - |
| 1777908605 | 12.22° C | 69% | 1011.7 hPa | 0 mm | - | - | - |
| 1777907704 | 12.78° C | 67% | 1011.7 hPa | 0 mm | - | - | - |
| 1777906805 | 12.78° C | 68% | 1011.7 hPa | 0 mm | - | - | - |
| 1777905904 | 12.78° C | 68% | 1011.7 hPa | 0 mm | - | - | - |
| 1777905004 | 12.78° C | 69% | 1011.8 hPa | 0 mm | - | - | - |
| 1777904104 | 13.33° C | 74% | 1011.7 hPa | 0 mm | - | - | - |
| 1777903204 | 12.78° C | 73% | 1011.8 hPa | 0 mm | - | - | - |
| 1777902304 | 12.78° C | 73% | 1011.8 hPa | 0 mm | - | - | - |
| 1777901405 | 13.33° C | 72% | 1011.8 hPa | 0 mm | - | - | - |
| 1777900505 | 13.33° C | 71% | 1011.9 hPa | 0.25 mm | - | - | - |
| 1777899604 | 12.78° C | 70% | 1012 hPa | 0.25 mm | - | - | - |
| 1777898704 | 12.78° C | 73% | 1012.1 hPa | 0.25 mm | - | - | - |
| 1777897804 | 12.78° C | 72% | 1012.1 hPa | 0.25 mm | - | - | - |
| 1777896904 | 12.78° C | 68% | 1012.2 hPa | 0 mm | - | - | - |
| 1777896004 | 12.78° C | 65% | 1012.2 hPa | 0 mm | - | - | - |
* Rain latest hour (hover to see other rain measurements)
** Current wind speed in m/s (hover to see current wind gust speed)